Regional Weather Roundup
Issued by NWS

Home | Current Version | Previous Version | Text Only | Print | Product List | Glossary Off
Versions: 1 2 3 4 5 6 7 8 9 10 11 12 13 14 15 16 17 18 19 20 21 22 23 24 25 26 27 28 29 30 31 32 33 34 35 36 37 38 39 40 41 42 43 44 45 46 47 48 49 50

000
ASUS43 KOAX 181202
RWRNE

WEATHER ROUNDUP FOR NEBRASKA
NATIONAL WEATHER SERVICE OMAHA NE
600 AM CST THU DEC 18 2014

NOTES: SATELLITE DATA IS BEING USED TO AUGMENT CLOUD COVER ABOVE
       12000 FEET.
       "FAIR" INDICATES FEW OR NO CLOUDS BELOW 12,000 FEET WITH NO
       SIGNIFICANT WEATHER AND/OR OBSTRUCTIONS TO VISIBILITY.

  * THESE STATIONS DO NOT REPORT WEATHER SUCH AS RAIN...SNOW OR FOG.

NEZ001>004-019>022-054>056-181300-
NEBRASKA PANHANDLE

CITY           SKY/WX    TMP DP  RH WIND       PRES   REMARKS
SCOTTSBLUFF    FOG        9   6  88 NW7       30.02S VSB 1/2 WCI  -2
6HR MIN TEMP:   9; 6HR MAX TEMP:  18;

ALLIANCE       CLOUDY     2  -2  83 W3        29.99S
6HR MIN TEMP:   2; 6HR MAX TEMP:  21;

CHADRON        PTCLDY     6   2  83 SW9       30.02S WCI  -8
6HR MIN TEMP:   6; 6HR MAX TEMP:  20;

SIDNEY         PTCLDY     5   2  87 CALM      29.99S
6HR MIN TEMP:   5; 6HR MAX TEMP:  22;

$$

NEZ057>060-069>072-079>082-181300-
SOUTHWEST NEBRASKA

CITY           SKY/WX    TMP DP  RH WIND       PRES   REMARKS
NORTH PLATTE   CLOUDY    24  22  91 SW6       30.08S WCI  17
6HR MIN TEMP:  23; 6HR MAX TEMP:  24;

IMPERIAL       CLOUDY    25  22  88 W7        30.05S WCI  17
6HR MIN TEMP:  25; 6HR MAX TEMP:  26;

MCCOOK         CLOUDY    23  21  92 CALM      30.10R FOG
6HR MIN TEMP:  21; 6HR MAX TEMP:  25; 6HR PCP:  0.05;

$$

NEZ005>010-023>029-035>040-094-181300-
NORTH CENTRAL NEBRASKA

CITY           SKY/WX    TMP DP  RH WIND       PRES   REMARKS
VALENTINE      CLOUDY    25  21  85 S6        30.05F WCI  18
6HR MIN TEMP:  23; 6HR MAX TEMP:  25;

BROKEN BOW     CLOUDY    24  22  91 S5        30.09S FOG     WCI  18
6HR MIN TEMP:  24; 6HR MAX TEMP:  24;

ORD            CLOUDY    23  20  88 SE5       30.12S WCI  17
6HR MIN TEMP:  23; 6HR MAX TEMP:  23;

$$

NEZ041-046>049-061>064-073>077-083>087-181300-
SOUTH CENTRAL NEBRASKA

CITY           SKY/WX    TMP DP  RH WIND       PRES   REMARKS
GRAND ISLAND   LGT SNOW  23  21  92 E6        30.16S FOG     WCI  16
6HR MIN TEMP:  23; 6HR MAX TEMP:  25; 6HR PCP:  0.03;

HASTINGS       CLOUDY    24  21  88 E5        30.14S WCI  18
6HR MIN TEMP:  24; 6HR MAX TEMP:  25; 6HR PCP: TRACE;

KEARNEY *      CLOUDY    25  21  86 E3        30.14R
$$

NEZ011>018-030>034-042>045-181300-
NORTHEAST NEBRASKA

CITY           SKY/WX    TMP DP  RH WIND       PRES   REMARKS
NORFOLK        LGT SNOW  24  21  88 SE5       30.18S FOG     WCI  18
6HR MIN TEMP:  24; 6HR MAX TEMP:  25; 6HR PCP:  0.01;

BLAIR          FLURRIES  27  23  85 E5        30.20S WCI  21
COLUMBUS *     CLOUDY    25  18  74 SE3       30.20S
TEKAMAH        CLOUDY    26  21  81 E3        30.23S
6HR MIN TEMP:  25; 6HR MAX TEMP:  27;

$$

NEZ050>053-065>068-078-088>093-181300-
SOUTHEAST NEBRASKA

CITY           SKY/WX    TMP DP  RH WIND       PRES   REMARKS
LINCOLN        LGT SNOW  26  24  92 E3        30.22S FOG
6HR MIN TEMP:  26; 6HR MAX TEMP:  27; 6HR PCP:  0.04;

OMAHA EPPLEY   FLURRIES  27  20  75 SE6       30.24S WCI  20
6HR MIN TEMP:  27; 6HR MAX TEMP:  28; 6HR PCP: TRACE;

FALLS CITY     LGT SNOW  27  25  92 E5        30.22R FOG     WCI  22
6HR MIN TEMP:  27; 6HR MAX TEMP:  29; 6HR PCP: TRACE;

$$

NEZ044-045-051>053-067-181300-
OMAHA AREA

CITY           SKY/WX    TMP DP  RH WIND       PRES   REMARKS
OMAHA EPPLEY   FLURRIES  27  20  75 SE6       30.24S WCI  20
6HR MIN TEMP:  27; 6HR MAX TEMP:  28; 6HR PCP: TRACE;

BLAIR          FLURRIES  27  23  85 E5        30.20S WCI  21
$$



USA.gov is the U.S. government's official web portal to all federal, state and local government web resources and services.